Location: Cisewo
(53.3833°N, 14.9000°E)
Time: 10:57:32
(UTC+00:00)

Spot 4 - Pass Details

Date: 18 April 2021
Orbit: 704 x 722 km, 98.3° (Epoch: 14 May)

Event Time Altitude Azimuth Distance (km) Brightness Sun altitude
Exits shadow 22:11:45 61° 235° (SW) 818 3.9 -24.7°
Maximum altitude 22:12:05 63° 258° (WSW) 806 4.0 -24.7°
Drops below altitude 10° 22:16:56 10° 340° (NNW) 2,225 7.4 -24.8°
Sets 22:19:15 0° 343° (NNW) 3,152 8.6 -24.9°
